Tracking 19905 objects as of 17-Oct-2019
HD Live streaming from Space Station
objects crossing your sky now

INTELSAT 2-F2 DEB *

Track INTELSAT 2-F2 DEB * now!


NORAD ID: 5987
Int'l Code: 1967-001S
Perigee: 499.8 km
Apogee: 28,638.9 km
Inclination: 26.3 °
Period: 502.6 minutes
Semi major axis: 20940 km
RCS: 0.3047 m2 (medium)
Launch date: January 11, 1967
Source: United States (US)
Launch site: AIR FORCE EASTERN TEST RANGE (AFETR)

Note: This is SATELLITE DEBRIS
aabbcc
Your satellite tracking list
Your tracking list is empty




NASA's NSSDC Master Catalog

Two Line Element Set (TLE):
1  5987U 67001S   19286.99824604 -.00000195  00000-0 -97988-4 0  9993
2  5987  26.3068 207.4435 6718861 174.9354 199.1018  2.86501902308611
Source of the keplerian elements: AFSPC